Regional Weather Roundup
Issued by NWS

Home | Current Version | Previous Version | Graphics & Text | Print | Product List | Glossary On
Versions: 1 2 3 4 5 6 7 8 9 10 11 12 13 14 15 16 17 18 19 20 21 22 23 24 25 26 27 28 29 30 31 32 33 34 35 36 37 38 39 40 41 42 43 44 45 46 47 48 49 50
000
ASUS43 KBIS 222310
RWRND

NORTH DAKOTA REGIONAL WEATHER ROUNDUP
NATIONAL WEATHER SERVICE BISMARCK ND
600 PM CDT SUN OCT 22 2017

NOTE: "FAIR" INDICATES FEW OR NO CLOUDS BELOW 12,000 FEET WITH NO
SIGNIFICANT WEATHER AND/OR OBSTRUCTIONS TO VISIBILITY.


NDZ001>003-009>011-017-230000-
NORTHWEST NORTH DAKOTA

CITY           SKY/WX    TMP DP  RH WIND       PRES   REMARKS
WILLISTON      MOCLDY    66  39  37 W20       29.55R
MINOT          PTCLDY    57  41  55 S8        29.57F
MINOT AFB      PTCLDY    56  42  58 SW13      29.55
$$

NDZ018>021-031>035-040>046-230000-
SOUTHWEST NORTH DAKOTA

CITY           SKY/WX    TMP DP  RH WIND       PRES   REMARKS
BISMARCK       CLOUDY    63  33  32 W9        29.68S
DICKINSON      MOCLDY    63  35  35 W13       29.64S
GARRISON         N/A     56  42  59 S7        29.60F
HETTINGER ARPT MOCLDY    63  34  33 W14       29.72S
$$

NDZ004>008-012>016-024-026-027-054-230000-
NORTHEAST NORTH DAKOTA

CITY           SKY/WX    TMP DP  RH WIND       PRES   REMARKS
GRAND FORKS    CLOUDY    63  30  28 SW16G23   29.66F
GRND FRKS AFB  PTCLDY    62  28  28 SW17G28   29.65F
DEVILS LAKE    LGT RAIN  56  39  53 SW17      29.63S
$$

NDZ022-023-025-028>030-036>039-047>053-230000-
SOUTHEAST NORTH DAKOTA

CITY           SKY/WX    TMP DP  RH WIND       PRES   REMARKS
FARGO          CLOUDY    61  31  32 S12G33    29.73F
JAMESTOWN      CLOUDY    62  26  25 SW15G24   29.69S
$$





USA.gov is the U.S. government's official web portal to all federal, state and local government web resources and services.